Showing default

GOES 1 (SMS-C), 8366

Orbit data source: Space-Track

GOES 1 (SMS-C), 8366 is a payload satellite owned by NOAA (US) in GEO that was launched on Thu, 16 Oct 1975 UTC via a DELTA 2914 launch vehicle from the Air Force Eastern Test Range (AFETR). Payload-class satellites include a variety of spacecraft equipped with specific instruments for various scientific and technological missions. These include communications satellites like Starlink; space stations such as the ISS; scientific satellites like the Hubble; Earth observation satellites from companies like Planet Labs, Umbra, and HawkEye 360; GPS; miniature CubeSats for education and research; and military/defense satellites.

Loading next visibility...
Identifier
8366, 1975-100A
Orbit
GEO
Country
Flag of USUS
Related business
Manufacturer
Ae Ford WDL
Mission
Non-operational spacecraft
Bus & Motor
SMS, SVM-5
Mass
~612 kg wet, ~277 kg dry
Launch date (UTC)
1975-10-16 (50 years ago)
Launch vehicle
DELTA 2914
Launch site
Air Force Eastern Test Range (AFETR)
Object type
Payload
Rocket body
Debris
Shape & HBR
Unknown
Radar Cross Section
Large (>1 m²)

Expand to show TLE details & history
Last TLE update: 11 hours ago

TLE from 11 hours ago
0 GOES 1 (SMS-C)
1 08366U 75100A   25304.25839598 -.00000103  00000-0  00000-0 0  9994
2 08366   5.1942 280.3146 0005866 329.5946 141.1777  1.00226898182772
Epoch: 2025-10-31T06:12Z
TLE epoch observation values (Epoch: 2025-10-31T06:12:05.412Z)
Latitude
4.86559°
Longitude
-101.65653°
Altitude
35,817.547 km
Speed
3.073 km/s
True Right ascension
02h 04m 41s
True Declination
4° 51' 38"
Sunlit
Object was in daylight at epoch
Visualization orbit readout
Latitude
Unknown
Longitude
Unknown
Altitude
Unknown
Speed
Unknown
Apparent Right ascension
Unknown
Apparent Declination
Unknown
Sunlit
N/A
Visualization observer readout
Local Sidereal Time
12:57:27
Azimuth
Unknown
Elevation
Unknown
Doppler factor
Unknown
Orbital elements
Apogee altitude
35,824.982 km
Perigee altitude
35,775.499 km
Semi-major axis
42,178.377 km
Eccentricity
0.00059
Inclination
5.1942°
RAAN
280.3146°
Arg. of periapsis
329.5946°
True anomaly
141.21982°
Mean anomaly
141.1777°
Eccentric anomaly
141.19876°
Mean motion
0.25056 °/min
Orbital period
1,436.79 mins
BSTAR
0
Loading maneuver chart data...
Computing Atmospheric mass density...
Loading historical data...
Loading historical data...
Loading historical data...
Loading historical data...
Loading historical data...
Loading historical data...
Loading historical data...

Documentation

Showing up to 5 results
|